IRIDIUM 169 (43926 NORAD) Tracking and Keplerian Element Data

This shows tracking and keplerian element data for the satellite.

Feedback or suggestion? Click here.




ElementValue
Catalog43926
NameIRIDIUM 169
Epoch Orbit430
Epoch Day40.8880243
Epoch Year2019
RAAN35.8378
Inclination87.3377
Eccentricity0.0003862
Argument of Perigee136.0592
Mean Anonmoly224.0917
Mean Motion14.42092686
Decay Rate5.4E-07
L11 43926U 19002E 19040.88802430 .00000054 00000-0 10553-4 0 9990
L22 43926 87.3377 35.8378 0003862 136.0592 224.0917 14.42092686 4304

Live tracking and technical data element details for IRIDIUM 169 (NORAD 43926). IRIDIUM 169 can be tracked NOW for your location showing map with azimuth and elevation plus other details from your city location.

Track the satellite on the map from your city or location and see movement details for azimuth, elevation, latitude, longitude, range, height, and movement on the map or in text.







IsCatalogInMostPopularTable: catalog: 43926, numindb: 122
Update: records affected: 1



GetName: 43926 IRIDIUM 169

Hit Count: updated at: Mon, 22 Jul 2019 03:33:34 GMT